Kansas City, MO

2:41 AM CDT on September 27, 2016 (GMT -0500)
Kansas City Downtown

Weather History for KMKC - January, 2014

Change the Weather History Date:

Thursday, January 2, 2014

  Actual Average Record
Temperature  
Mean Temperature 10 °F -  
Max Temperature 17 °F 38 °F 68 °F (1997)
Min Temperature 3 °F 21 °F -2 °F (2001)
Degree Days  
Heating Degree Days 55    
Moisture  
Dew Point -2 °F    
Average Humidity 62    
Maximum Humidity 73    
Minimum Humidity 47    
Precipitation  
Precipitation 0.00 in - - ()
Sea Level Pressure  
Sea Level Pressure 30.48 in    
Wind  
Wind Speed 8 mph (NNW)    
Max Wind Speed 12 mph    
Max Gust Speed -    
Visibility 9 miles    
Events      
Averages and records for this station are not official NWS values.
T = Trace of Precipitation, MM = Missing Value Source: NWS Daily Summary

Daily Weather History Graph

Daily Weather History Graph

Search for Another Location

Airport or City:

Trip Planner

Search our weather history database for the weather conditions in past years. The results will help you decide how hot, cold, wet, or windy it might be!

Date:

Astronomy

Jan. 02, 2014 Rise Set
Actual Time 7:37 AM CST 5:07 PM CST
Civil Twilight 7:07 AM CST 5:37 PM CST
Nautical Twilight 6:34 AM CST 6:10 PM CST
Astronomical Twilight 6:01 AM CST 6:43 PM CST
Moon 8:20 AM CST (1/2) 7:04 PM CST (1/2)
Length of Visible Light 10h 29m
Length of Day
9h 29m
Waxing Crescent, 3% of the Moon is Illuminated
Jan 2
Waxing Crescent
Jan 7
First Quarter
Jan 15
Full
Jan 23
Last Quarter
Jan 30
New

Hourly Weather History & Observations

Time (CST) Temp. Windchill Dew Point Humidity Pressure Visibility Wind Dir Wind Speed Gust Speed Precip Events Conditions
12:54 AM 8.1 °F -7.0 °F 1.0 °F 73% 30.36 in 10.0 mi NNW 11.5 mph - N/A   Clear
1:54 AM 7.0 °F -7.5 °F -0.9 °F 70% 30.38 in 10.0 mi NNW 10.4 mph - N/A   Clear
2:54 AM 5.0 °F -10.0 °F -2.0 °F 73% 30.41 in 7.0 mi NNW 10.4 mph - N/A   Partly Cloudy
3:54 AM 3.9 °F -8.2 °F -4.0 °F 70% 30.42 in 10.0 mi NW 6.9 mph - N/A   Partly Cloudy
4:54 AM 3.9 °F -9.4 °F -2.9 °F 73% 30.43 in 9.0 mi NW 8.1 mph - N/A   Clear
5:54 AM 3.9 °F -6.9 °F -4.0 °F 70% 30.44 in 8.0 mi NW 5.8 mph - N/A   Clear
6:54 AM 3.0 °F -8.0 °F -4.0 °F 73% 30.45 in 8.0 mi WNW 5.8 mph - N/A   Clear
7:54 AM 3.0 °F -9.3 °F -4.0 °F 73% 30.46 in 6.0 mi WNW 6.9 mph - N/A   Haze
8:54 AM 5.0 °F -8.1 °F -2.9 °F 70% 30.49 in 6.0 mi NW 8.1 mph - N/A   Haze
9:54 AM 8.1 °F -3.2 °F -2.0 °F 64% 30.50 in 7.0 mi NNW 6.9 mph - N/A   Overcast
10:54 AM 10.9 °F 2.9 °F -2.0 °F 56% 30.51 in 9.0 mi NW 4.6 mph - N/A   Partly Cloudy
11:54 AM 14.0 °F - -2.9 °F 47% 30.49 in 10.0 mi North - - 0.00 in   Scattered Clouds
12:54 PM 16.0 °F 5.3 °F -0.0 °F 49% 30.47 in 10.0 mi WNW 8.1 mph - N/A   Clear
1:54 PM 17.1 °F 6.6 °F 1.9 °F 52% 30.47 in 10.0 mi NW 8.1 mph - N/A   Clear
2:54 PM 17.1 °F 7.6 °F 1.9 °F 52% 30.48 in 10.0 mi NNW 6.9 mph - N/A   Partly Cloudy
3:54 PM 17.1 °F 7.6 °F 1.0 °F 50% 30.49 in 10.0 mi NW 6.9 mph - N/A   Clear
4:54 PM 14.0 °F 5.1 °F -0.0 °F 54% 30.51 in 10.0 mi North 5.8 mph - N/A   Clear
5:54 PM 12.0 °F 2.7 °F -0.0 °F 59% 30.52 in 10.0 mi NNW 5.8 mph - N/A   Clear
6:54 PM 10.9 °F 4.7 °F -2.0 °F 56% 30.53 in 10.0 mi North 3.5 mph - N/A   Clear
7:54 PM 10.0 °F 1.8 °F -2.0 °F 58% 30.55 in 10.0 mi North 4.6 mph - N/A   Clear
8:54 PM 8.1 °F - -2.0 °F 64% 30.54 in 10.0 mi Calm Calm - N/A   Clear
9:54 PM 8.1 °F 1.4 °F -2.0 °F 64% 30.54 in 10.0 mi North 3.5 mph - N/A   Clear
10:54 PM 8.1 °F 1.4 °F -2.9 °F 61% 30.53 in 10.0 mi NNE 3.5 mph - N/A   Clear
11:54 PM 8.1 °F 1.4 °F -4.0 °F 58% 30.53 in 10.0 mi NNE 3.5 mph - N/A   Clear